Philadelphia, PA

7:22 PM EDT on May 29, 2017 (GMT -0400)
Philadelphia International

Weather History for KPHL - January, 2013

Change the Weather History Date:

Monday, January 14, 2013

  Actual Average Record
Temperature  
Mean Temperature 50 °F 33 °F  
Max Temperature 58 °F 40 °F 73 °F (1932)
Min Temperature 42 °F 25 °F 0 °F (1914)
Degree Days  
Heating Degree Days 15 32  
Month to date heating degree days 352 446  
Since 1 July heating degree days 1848 2116  
Cooling Degree Days 0 0  
Month to date cooling degree days 0 0  
Year to date cooling degree days 0 0  
Moisture  
Dew Point 47 °F    
Average Humidity 75    
Maximum Humidity 100    
Minimum Humidity 50    
Precipitation  
Precipitation 0.20 in 0.10 in 2.27 in (1968)
Month to date precipitation 0.97 1.36  
Year to date precipitation 0.97 1.36  
Snow  
Snow 0.00 in 0.20 in 7.20 in (1910)
Month to date snowfall 0.7 2.5  
Since 1 July snowfall 1.1 6.2  
Snow Depth 0.00 in    
Sea Level Pressure  
Sea Level Pressure 30.11 in    
Wind  
Wind Speed 7 mph (NW)    
Max Wind Speed 20 mph    
Max Gust Speed 24 mph    
Visibility 5 miles    
Events Fog , Rain    
T = Trace of Precipitation, MM = Missing Value Source: NWS Daily Summary

Daily Weather History Graph

Daily Weather History Graph

Search for Another Location

Airport or City:

Trip Planner

Search our weather history database for the weather conditions in past years. The results will help you decide how hot, cold, wet, or windy it might be!

Date:

Astronomy

Jan. 14, 2013 Rise Set
Actual Time 7:20 AM EST 4:59 PM EST
Civil Twilight 6:51 AM EST 5:29 PM EST
Nautical Twilight 6:17 AM EST 6:02 PM EST
Astronomical Twilight 5:45 AM EST 6:35 PM EST
Moon 8:53 AM EST (1/14) 8:42 PM EST (1/14)
Length of Visible Light 10h 38m
Length of Day
9h 38m
Waxing Crescent, 11% of the Moon is Illuminated
Jan 14
Waxing Crescent
Jan 18
First Quarter
Jan 26
Full
Feb 3
Last Quarter
Feb 10
New

Hourly Weather History & Observations

Time (EST) Temp. Windchill Dew Point Humidity Pressure Visibility Wind Dir Wind Speed Gust Speed Precip Events Conditions
12:54 AM 53.1 °F - 52.0 °F 96% 30.01 in 0.2 mi SSW 6.9 mph - 0.00 in Fog Fog
1:21 AM 53.6 °F - 51.8 °F 94% 30.00 in 0.2 mi South 4.6 mph - N/A Fog Fog
1:54 AM 53.1 °F - 52.0 °F 96% 30.01 in 0.2 mi South 4.6 mph - N/A Fog Fog
2:54 AM 54.0 °F - 53.1 °F 97% 30.01 in 0.2 mi South 4.6 mph - N/A Fog Fog
3:46 AM 53.6 °F - 51.8 °F 94% 30.01 in 0.2 mi West 4.6 mph - N/A Fog Fog
3:54 AM 53.1 °F - 52.0 °F 96% 30.01 in 0.2 mi WNW 4.6 mph - N/A Fog Fog
4:54 AM 52.0 °F - 52.0 °F 100% 29.98 in 0.2 mi Calm Calm - N/A Fog Fog
5:54 AM 51.1 °F - 50.0 °F 96% 29.99 in 0.2 mi WSW 4.6 mph - N/A Fog Fog
6:51 AM 51.8 °F - 51.8 °F 100% 30.01 in 0.2 mi West 4.6 mph - N/A Fog Fog
6:54 AM 52.0 °F - 52.0 °F 100% 30.01 in 0.2 mi West 5.8 mph - N/A Fog Fog
7:31 AM 51.8 °F - 51.8 °F 100% 30.02 in 0.2 mi South 3.5 mph - N/A Fog Fog
7:54 AM 51.1 °F - 50.0 °F 96% 30.04 in 0.2 mi South 3.5 mph - N/A Fog Fog
8:11 AM 51.8 °F - 51.8 °F 100% 30.07 in 0.5 mi West 6.9 mph - N/A Fog Fog
8:41 AM 53.6 °F - 51.8 °F 94% 30.07 in 0.5 mi North 3.5 mph - N/A Fog Fog
8:50 AM 53.6 °F - 51.8 °F 94% 30.09 in 1.0 mi Variable 3.5 mph - N/A   Overcast
8:54 AM 53.1 °F - 52.0 °F 96% 30.09 in 1.2 mi NW 5.8 mph - N/A   Overcast
8:59 AM 53.6 °F - 53.6 °F 100% 30.09 in 2.0 mi WNW 4.6 mph - N/A   Overcast
9:10 AM 53.6 °F - 53.6 °F 100% 30.10 in 3.0 mi WNW 5.8 mph - N/A   Overcast
9:13 AM 53.6 °F - 53.6 °F 100% 30.09 in 3.0 mi WNW 6.9 mph - N/A   Overcast
9:44 AM 55.4 °F - 53.6 °F 94% 30.10 in 4.0 mi Variable 4.6 mph - N/A   Overcast
9:52 AM 55.4 °F - 53.6 °F 94% 30.11 in 5.0 mi Variable 6.9 mph - N/A   Overcast
9:54 AM 55.9 °F - 53.1 °F 90% 30.11 in 5.0 mi NW 3.5 mph - N/A   Overcast
10:08 AM 55.4 °F - 53.6 °F 94% 30.11 in 7.0 mi North 4.6 mph - N/A   Overcast
10:39 AM 55.4 °F - 51.8 °F 88% 30.12 in 10.0 mi NW 4.6 mph - N/A   Overcast
10:54 AM 57.0 °F - 52.0 °F 83% 30.11 in 10.0 mi Calm Calm - N/A   Overcast
11:54 AM 57.9 °F - 48.9 °F 72% 30.12 in 10.0 mi NW 8.1 mph - N/A   Overcast
12:54 PM 55.9 °F - 46.0 °F 69% 30.13 in 10.0 mi NW 8.1 mph 18.4 mph N/A   Overcast
1:54 PM 55.9 °F - 43.0 °F 62% 30.14 in 10.0 mi WNW 10.4 mph - N/A   Overcast
2:54 PM 54.0 °F - 39.0 °F 57% 30.15 in 10.0 mi NNW 11.5 mph - N/A   Overcast
3:54 PM 53.1 °F - 39.0 °F 59% 30.17 in 10.0 mi NNW 10.4 mph - N/A   Overcast
4:54 PM 53.1 °F - 37.9 °F 57% 30.18 in 10.0 mi NNW 5.8 mph - N/A   Overcast
5:54 PM 53.1 °F - 37.0 °F 55% 30.19 in 10.0 mi WNW 3.5 mph - N/A   Overcast
6:54 PM 53.1 °F - 36.0 °F 52% 30.22 in 10.0 mi NW 9.2 mph - N/A   Overcast
7:54 PM 52.0 °F - 35.1 °F 53% 30.25 in 10.0 mi NNW 8.1 mph - N/A   Overcast
8:54 PM 51.1 °F - 34.0 °F 52% 30.26 in 10.0 mi North 11.5 mph - N/A   Overcast
9:30 PM 46.4 °F 40.4 °F 35.6 °F 66% 30.28 in 7.0 mi North 13.8 mph - 0.00 in Rain Rain
9:54 PM 45.0 °F 41.2 °F 39.0 °F 80% 30.27 in 7.0 mi North 6.9 mph - 0.04 in Rain Rain
10:54 PM 44.1 °F 39.0 °F 37.0 °F 76% 30.28 in 7.0 mi North 9.2 mph - 0.06 in Rain Light Rain
11:09 PM 42.8 °F 37.0 °F 37.4 °F 81% 30.28 in 6.0 mi North 10.4 mph - 0.02 in Rain Light Rain
11:54 PM 42.1 °F 36.6 °F 37.9 °F 85% 30.29 in 6.0 mi North 9.2 mph - 0.10 in Rain Light Rain